Probability
0 0 0 0 0 0 0 0 0 0 0 0 0 0 0 0 0 0 0 0 0 0 0 0 0 0 0 0 0 0 0 0 0 0 0 0 0 0
0 0 0 0 0 0 0 0 0 0 0 0 0 0 0 0 0 0 0 0 0 0 0 0 0 0 0 0 0 0 0 0 0 0 0 0 0 0
0 0 0 0 0 0 0 0 0 0 0 0 0 0 0 0 0 0 0 0 0 0 0 0 0 0 0 0 0 0 0 0 0 0 0 0 0 0
0 0 0 0 0 0 0 0 0 0 0 0 0 0 0 0 0 0 0 0 0 0 0 0 0 0 0 0 0 0 0 0 0 0 0 0 0 0
0 0 0 0 0 0 0 0 0 0 0 0 0 0 0 0 0 0 0 0 0 0 0 0 0 0 0 0 0 0 0 0 0 0 0 0 0 0
0 0 0 0 0 0 0 0 0 0 0 0 0 0 0 0 0 0 0 0 0 0 0 0 0 0 0 0 0 0 0 0 0 0 0 0 0 0
0 0 0 0 0 0 0 0 0 0 0 0 0 0 0 0 0 0 0 0 0 0 0 0 0 0 0 0 0 0 0 0 0 0 0 0 0 0
0 0 0 0 0 0 0 0 0 0 0 0 0 0 0 0 0 0 0 0 0 0 0 0 0 0 0 0 0 0 0 0 0 0 0 0 0 0
0 0 0 0 0 0 0 0 0 0 0 0 0 0 0 0 0 0 0 0 0 0 0 0 0 0 0 0 0 0 0 0 0 0 0 0 0 0
0 0 0 0 0 0 0 0 0 0 0 0 0 0 0 0 0 0 0 0 0 0 0 0 0 0 0 0 0 0 0 0 0 0 0 0 0 0
0 0 0 0 0 0 0 0 0 0 0 0 0 0 0 0 0 0 0 0 0 0 0 0 0 0 0 0 0 0 0 0 0 0 0 0 0 0
0 0 0 0 0 0 0 0 0 0 0 0 0 0 0 0 0 0 0 0 0 0 0 0 0 0 0 0 0 0 0 0 0 0 0 0 0 0
0 0 0 0 0 0 0 0 0 0 0 0 0 0 0 0 0 0 0 0 0 0 0 0 0 0 0 0 0 0 0 0 0 0 0 0 0 0
0 0 0 0 0 0 0 0 0 0 0 0 0 0 0 0 0 0 0 0 0 0 0 0 0 0 0 0 0 0 0 0 0 0 0 0 0 0
0 0 0 0 0 0 0 0 0 0 0 0 0 0 0 0 0 0 0 0 0 0 0 0 0 0 0 0 0 0 0 0 0 0 0 0 0 0
0 0 0 0 0 0 0 0 0 0 0 0 0 0 0 0 0 0 0 0 0 0 0 0 0 0 0 0 0 0 0 0 0 0 0 0 0 0
0 0 0 0 0 0 0 0 0 0 0 0 0 0 0 0 0 0 0 0 0 0 0 0 0 0 0 0 0 0 0 0 0 0 0 0 0 0
0 0 0 0 0 0 0 0 0 0 0 0 0 0 0 0 0 0 0 0 0 0 0 0 0 0 0 0 0 0 0 0 0 0 0 0 0 0
0 0 0 0 0 0 0 0 0 0 0 0 0 0 0 0 0 0 0 0 0 0 0 0 0 0 0 0 0 0 0 0 0 0 0 0 0 0
0 0 0 0 0 0 0 0 0 0 0 0 0 0 0 0 0 0 0 0 0 0 0 0 0 0 0 0 0 0 0 0 0 0 0 0 0 0
0 0 0 0 0 0 0 0 0 0 0 0 0 0 0 0 0 0 0 0 0 0 0 0 0 0 0 0 0 0 0 0 0 0 0 0 0 0
0 0 0 0 0 0 0 0 0 0 0 0 0 0 0 0 0 0 0 0 0 0 0 0 0 0 0 0 0 0 0 0 0 0 0 0 0 0
0 0 0 0 0 0 0 0 0 0 0 0 0 0 0 0 0 0 0 0 0 0 0 0 0 0 0 0 0 0 0 0 0 0 0 0 0 0
Height
5606 5600 5596 5591 5586 5581 5577 5572 5567 5563 5560 5555 5547 5541 5534 5529 5523 5518 5513 5506 5500 5494 5487 5480 5473 5466 5458 5451 5444 5437 5431 5425 5420 5416 5413 5412 5412 5415
5589 5584 5580 5575 5569 5564 5559 5555 5550 5545 5542 5538 5530 5523 5516 5510 5504 5498 5493 5486 5479 5471 5464 5456 5448 5440 5432 5424 5417 5410 5403 5397 5392 5387 5383 5381 5380 5382
5572 5567 5563 5558 5552 5547 5542 5537 5532 5527 5523 5520 5512 5505 5498 5491 5485 5479 5472 5465 5458 5449 5441 5432 5424 5415 5407 5399 5391 5384 5377 5371 5365 5359 5355 5353 5352 5354
5555 5550 5546 5540 5535 5530 5525 5520 5515 5509 5505 5501 5496 5488 5481 5473 5467 5461 5453 5445 5438 5429 5419 5410 5401 5392 5383 5375 5367 5359 5352 5345 5339 5334 5329 5328 5327 5329
5538 5534 5529 5523 5519 5513 5508 5503 5497 5492 5487 5482 5478 5471 5464 5455 5448 5442 5434 5426 5417 5408 5399 5389 5380 5370 5361 5352 5344 5335 5327 5321 5314 5309 5305 5304 5305 5307
5522 5517 5512 5506 5501 5496 5490 5485 5480 5474 5469 5464 5459 5453 5446 5438 5430 5424 5417 5408 5399 5388 5378 5369 5359 5350 5341 5331 5322 5313 5305 5297 5291 5286 5284 5284 5285 5287
5505 5500 5495 5489 5484 5478 5473 5467 5462 5457 5452 5446 5441 5435 5429 5420 5412 5405 5398 5390 5381 5369 5359 5351 5340 5332 5322 5312 5302 5292 5284 5276 5270 5267 5265 5265 5266 5270
5488 5483 5478 5472 5466 5460 5455 5450 5445 5440 5434 5429 5423 5418 5411 5403 5395 5387 5379 5371 5365 5354 5340 5334 5322 5313 5304 5294 5284 5274 5265 5258 5252 5250 5248 5249 5251 5255
5471 5466 5461 5455 5449 5444 5438 5433 5428 5423 5418 5412 5407 5401 5394 5386 5378 5370 5361 5352 5344 5334 5322 5317 5306 5296 5287 5276 5266 5256 5248 5241 5237 5235 5234 5235 5237 5242
5454 5449 5444 5439 5433 5427 5422 5418 5413 5407 5401 5395 5391 5384 5376 5368 5360 5352 5344 5336 5329 5318 5304 5297 5290 5280 5271 5260 5250 5240 5233 5227 5224 5222 5221 5222 5225 5230
5437 5432 5427 5422 5417 5411 5407 5403 5398 5392 5385 5379 5374 5367 5360 5352 5344 5336 5328 5319 5313 5305 5290 5279 5273 5264 5257 5247 5236 5227 5220 5215 5212 5210 5209 5211 5215 5220
5420 5415 5410 5406 5401 5395 5392 5388 5383 5377 5371 5365 5359 5352 5345 5337 5329 5320 5312 5303 5295 5290 5279 5267 5258 5248 5243 5237 5225 5216 5209 5204 5201 5200 5199 5201 5206 5212
5402 5399 5394 5389 5384 5380 5376 5373 5368 5362 5357 5351 5345 5339 5331 5324 5315 5307 5298 5289 5281 5274 5265 5254 5246 5235 5227 5223 5216 5207 5200 5195 5192 5191 5190 5194 5199 5207
5386 5382 5378 5373 5369 5365 5361 5357 5353 5348 5343 5338 5332 5325 5318 5311 5303 5294 5286 5277 5268 5260 5252 5242 5233 5225 5217 5211 5205 5199 5192 5187 5184 5183 5184 5189 5195 5204
5370 5366 5362 5358 5354 5350 5346 5342 5338 5334 5329 5324 5318 5312 5305 5298 5290 5282 5274 5266 5258 5249 5240 5231 5223 5216 5208 5201 5196 5190 5185 5181 5178 5177 5180 5186 5194 5203
5354 5350 5347 5343 5340 5336 5332 5328 5324 5320 5316 5311 5305 5299 5292 5285 5278 5270 5263 5256 5248 5241 5231 5222 5214 5207 5200 5194 5188 5183 5179 5175 5174 5174 5178 5184 5193 5203
5338 5335 5332 5329 5326 5323 5319 5315 5311 5307 5303 5298 5293 5287 5281 5274 5267 5259 5253 5246 5239 5232 5224 5215 5207 5200 5193 5188 5182 5178 5174 5171 5170 5172 5176 5184 5193 5205
5323 5320 5317 5314 5312 5309 5306 5303 5299 5295 5291 5286 5281 5275 5269 5263 5257 5250 5243 5236 5229 5223 5216 5209 5201 5195 5189 5183 5178 5174 5171 5168 5169 5171 5177 5185 5195 5207
5309 5306 5303 5301 5299 5296 5294 5291 5287 5284 5279 5275 5270 5265 5259 5253 5247 5241 5235 5228 5221 5215 5208 5202 5196 5190 5185 5180 5176 5171 5168 5167 5168 5172 5179 5187 5197 5209
5296 5293 5291 5289 5287 5285 5282 5279 5276 5273 5269 5265 5260 5255 5250 5244 5239 5233 5227 5221 5215 5209 5203 5196 5191 5186 5181 5178 5173 5170 5167 5167 5169 5174 5181 5189 5199 5211
5283 5280 5278 5277 5275 5274 5271 5269 5266 5263 5259 5255 5251 5246 5241 5236 5231 5225 5220 5214 5209 5203 5198 5193 5188 5183 5179 5175 5172 5169 5168 5168 5170 5175 5183 5192 5202 5214
5271 5269 5267 5266 5265 5264 5262 5259 5257 5254 5250 5246 5242 5238 5233 5228 5223 5219 5214 5209 5204 5199 5194 5189 5185 5181 5178 5174 5171 5169 5169 5170 5173 5178 5186 5195 5205 5218
5260 5259 5258 5257 5256 5254 5253 5250 5248 5245 5242 5238 5234 5230 5226 5221 5217 5213 5209 5204 5199 5195 5191 5187 5183 5180 5177 5173 5171 5169 5169 5172 5175 5181 5189 5198 5208 5220
Wind_Speed
63 62 62 61 61 61 62 62 63 62 61 62 64 64 65 65 65 65 66 67 68 69 71 73 74 75 76 77 77 77 77 78 78 78 79 80 81 84
63 63 62 61 62 63 63 63 64 64 63 62 63 64 64 65 66 66 67 68 69 70 72 73 74 75 75 75 74 73 73 73 73 74 74 74 75 77
64 63 62 63 63 63 64 65 65 64 63 62 62 63 64 65 66 66 67 68 68 70 71 72 72 73 73 72 71 70 70 70 70 71 71 70 69 69
63 63 63 64 63 63 64 64 64 64 63 62 61 62 64 65 65 66 66 67 68 69 70 71 70 70 69 69 68 68 68 68 69 68 66 65 63 63
63 62 62 63 62 63 63 63 63 63 63 61 60 62 63 64 65 65 66 66 67 68 68 68 67 67 66 66 66 66 66 66 65 63 61 58 57 58
61 61 62 62 62 63 63 63 63 62 62 61 61 62 62 63 64 64 64 64 65 65 66 65 65 64 64 64 64 64 63 62 60 57 54 53 53 53
61 61 61 61 62 62 62 62 61 61 61 61 61 61 61 62 63 63 64 64 63 63 64 62 63 62 62 62 61 61 59 57 54 51 50 50 49 50
60 60 60 60 60 60 60 60 59 59 59 60 60 60 60 61 61 62 63 63 61 60 62 59 60 60 60 59 58 57 55 52 49 47 46 46 46 47
59 59 58 58 59 59 58 58 57 57 58 59 58 58 59 59 61 61 62 62 60 59 60 58 57 58 57 56 55 53 50 46 43 42 42 42 43 46
58 58 58 58 58 57 56 55 55 56 57 58 57 57 58 58 59 60 60 60 57 56 58 57 55 55 54 53 51 48 45 42 39 38 38 39 42 46
57 56 56 56 56 55 54 54 54 55 56 56 56 56 55 56 57 58 58 58 55 52 55 56 55 54 51 49 46 43 41 38 36 35 35 37 41 45
55 55 54 54 54 54 54 53 53 53 54 53 53 53 53 54 55 56 56 56 55 51 51 53 53 53 47 42 42 40 37 35 33 34 34 35 40 45
53 53 53 53 53 53 53 52 51 52 51 51 51 51 52 52 52 53 53 54 52 50 50 51 50 48 45 40 37 36 34 31 31 32 31 35 41 45
51 51 51 52 52 52 52 51 50 50 49 49 49 50 50 50 50 50 50 50 49 48 48 49 46 44 42 39 35 32 30 28 27 28 31 37 42 47
51 51 50 50 50 49 49 49 48 48 47 48 48 48 48 48 48 48 47 46 45 46 47 45 43 41 40 37 32 29 25 24 24 26 32 39 44 49
50 50 49 48 47 47 47 47 46 45 46 46 46 46 46 46 45 44 44 43 42 42 43 42 40 38 36 34 30 25 23 21 22 25 34 40 46 51
49 48 46 45 45 44 44 43 43 44 44 43 43 43 43 42 42 41 41 40 39 38 38 38 37 35 33 31 26 23 21 19 20 26 35 41 47 52
46 44 43 42 42 42 41 41 41 41 41 41 41 40 40 39 38 38 38 37 37 36 35 34 32 30 29 27 24 20 18 16 20 28 36 44 50 55
43 41 40 39 38 38 38 38 39 38 38 38 37 37 36 36 35 35 35 34 33 33 33 31 28 26 24 22 21 18 14 13 20 30 38 47 54 59
40 39 37 36 36 36 35 35 35 35 35 35 35 34 34 33 33 32 32 31 30 30 29 27 25 23 21 19 17 14 11 12 21 32 41 48 54 59
37 35 34 33 33 33 32 32 33 33 32 32 32 32 31 31 30 30 29 29 28 27 25 24 22 20 19 17 14 11 9 13 23 33 42 50 55 59
33 31 30 29 29 30 30 30 30 30 30 29 29 29 29 29 28 27 26 26 25 24 22 21 19 18 17 15 12 8 8 16 24 33 44 51 55 58
29 27 27 27 27 27 27 28 27 27 27 27 27 28 27 26 25 24 24 24 23 22 20 18 17 16 15 12 9 6 8 17 26 34 44 51 54 57
Wind_Direction
293 292 293 294 294 294 294 293 294 294 293 293 294 294 293 293 294 293 293 293 293 293 293 293 292 292 291 290 288 286 284 281 279 276 273 268 263 256
292 292 292 293 293 294 294 293 294 294 293 293 293 293 294 294 295 295 295 295 295 295 295 295 294 294 293 291 289 287 285 282 280 278 274 270 264 257
291 291 291 291 292 293 293 293 293 294 294 293 293 293 294 295 295 296 296 296 296 297 297 296 296 295 294 292 291 289 286 283 282 279 275 270 264 257
291 291 291 291 292 293 293 293 293 293 294 293 293 293 294 295 295 296 297 297 298 298 298 297 297 296 294 293 292 290 287 284 282 279 274 268 262 256
290 291 291 291 292 292 292 292 292 293 293 294 294 294 295 295 295 296 297 298 299 299 299 298 297 296 295 295 293 291 288 285 283 277 271 264 259 253
291 291 291 291 291 292 292 292 292 292 294 294 294 294 295 295 296 297 298 299 300 300 300 299 299 298 297 296 294 293 290 286 283 274 266 261 257 248
291 291 291 291 292 292 292 292 292 292 294 294 294 295 296 296 297 298 299 300 302 302 301 301 300 299 298 297 296 294 291 286 280 270 263 258 252 243
291 291 291 292 292 292 293 292 292 293 294 294 295 296 297 297 298 299 301 302 303 302 301 302 300 301 300 299 297 295 291 285 277 266 260 254 247 237
291 291 291 292 292 293 293 292 293 294 295 295 296 297 297 298 299 300 302 304 305 304 302 303 302 302 302 301 299 296 292 283 274 262 256 251 241 231
290 290 291 291 292 292 292 293 294 295 295 296 297 298 298 299 300 302 304 305 306 305 304 304 304 304 304 303 301 297 292 282 271 260 254 247 234 223
290 290 291 291 292 292 292 293 294 295 295 296 298 299 299 300 301 303 305 306 307 307 305 305 306 306 307 305 301 296 292 282 269 258 253 242 226 216
290 291 291 291 291 291 292 293 294 294 295 297 298 299 299 300 302 304 305 306 308 308 306 306 307 308 308 306 301 296 291 279 266 256 249 233 217 209
291 291 290 290 290 291 292 293 293 294 295 296 298 298 299 301 302 304 305 307 308 309 308 308 309 309 310 309 303 297 290 277 266 256 244 221 208 202
292 291 290 290 290 291 291 292 292 293 295 296 298 299 300 301 303 304 305 307 308 310 310 310 311 311 310 310 306 297 290 277 265 251 231 210 201 196
293 292 291 290 290 290 291 291 292 293 295 297 298 299 301 302 304 305 306 307 309 311 312 312 313 312 312 311 308 299 289 275 262 242 219 203 196 192
293 292 291 291 290 290 290 291 292 293 295 296 298 300 302 304 305 306 307 308 310 311 312 313 313 313 312 311 308 300 289 273 253 230 210 199 193 190
293 292 291 290 289 289 289 290 291 293 295 297 299 301 303 305 306 307 309 310 312 313 313 313 312 313 313 312 308 301 288 269 241 217 203 196 192 188
293 292 290 289 288 288 288 289 291 293 295 297 300 302 304 306 307 308 310 312 313 314 315 315 313 313 314 313 309 300 288 261 227 206 196 191 188 185
294 292 289 287 288 288 288 289 291 293 296 298 301 303 305 307 309 309 312 313 314 315 316 317 316 316 316 313 308 300 283 246 213 196 190 187 186 185
294 291 289 287 287 287 288 290 292 294 296 299 302 304 306 308 310 311 313 314 316 317 317 317 318 318 318 315 308 298 275 230 202 191 188 186 185 184
294 290 287 285 285 287 289 291 293 294 297 299 302 305 307 309 311 313 314 316 318 319 319 318 318 320 319 316 309 295 256 209 193 188 187 186 185 183
292 288 286 285 285 287 289 291 293 296 298 300 302 305 307 310 311 313 316 318 320 321 320 320 319 319 320 317 309 288 232 199 188 186 186 185 184 184
291 288 285 285 286 286 289 291 294 297 298 300 303 306 308 310 311 313 316 320 321 321 321 321 320 320 321 319 308 278 217 194 187 184 184 185 184 183